SCP
0 0 -0 -0 -0 -0 0 0 0 0 0 0 0 0 0 0 0 0 0 0 0 -0 -0 -0 -0 -0 -0 -0 -0 -0 -0 -0 -0 -0 -0 -0 -0 -0 -0 -0 -0 -0 -0 -0 -0 -0 -0 -0 -0
0 0 -0 -0 0 -0 0 0 0 0 0 0 0 0 0 0 0 0 0 0 -0 -0 -0 -0 -0 -0 -0 -0 -0 -0 -0 -0 -0 -0 -0 -0 -0 -0 -0 -0 -0 -0 -0 -0 -0 -0 -0 -0 -0
0 -0 -0 -0 -0 0 -0 -0 0 0 0 0 0 0 0 0 0 0 0 -0 -0 -0 -0 -0 -0 -0 -0 -0 -0 -0 -0 -0 -0 -0 -0 -0 -0 -0 -0 -0 -0 -0 -0 -0 -0 -0 -0 -0 -0
0 0 -0 -0 0 0 -0 -0 -0 -0 0 0 0 0 0 0 0 0 0 -0 -0 -0 -0 -0 -0 -0 -0 -0 -0 -0 -0 -0 -0 -0 -0 -0 -0 -0 -0 -0 -0 -0 -0 -0 -0 -0 -0 -0 -0
0 0 0 0 0 -0 -0 0 -0 -0 0 0 0 0 0 0 -0 0 0 -0 -0 -0 -0 -0 -0 -0 -0 -0 -0 -0 -0 -0 -0 -0 -0 -0 -0 -0 -0 -0 -0 -0 -0 -0 -0 -0 -0 -0 -0
0 0 0 0 0 0 0 0 0 0 0 0 0 0 0 0 0 0 0 -0 -0 -0 -0 -0 -0 -0 -0 -0 -0 -0 -0 -0 -0 -0 -0 -0 -0 -0 -0 -0 -0 -0 -0 -0 -0 -0 -0 -0 -0
0 0 0 0 0 0 0 0 0 0 0 0 0 0 0 0 0 0 0 0 0 0 -0 -0 -0 -0 -0 -0 -0 -0 -0 -0 -0 -0 -0 -0 -0 -0 -0 -0 -0 -0 -0 -0 -0 -0 -0 -0 -0
0 0 0 0 0 0 0 0 0 0 0 0 0 0 0 0 0 0 0 0 0 -0 0 0 0 -0 0 0 -0 -0 -0 -0 -0 -0 -0 -0 -0 -0 -0 0 -0 -0 -0 -0 -0 -0 -0 -0 -0
0 0 0 0 0 0 0 0 0 0 0 0 0 0 0 0 0 0 0 0 0 0 0 0 0 0 0 0 0 -0 -0 -0 0 0 0 -0 0 0 0 0 0 -0 -0 -0 -0 -0 -0 -0 -0
0 0 0 0 0 0 0 0 -0 0 0 0 0 0 0 0 0 0 0 0 0 0 0 0 0 0 0 0 0 0 0 0 0 0 0 0 0 0 0 0 -0 -0 -0 -0 -0 -0 -0 0 0
0 0 0 0 0 0 0 0 0 0 0 0 0 0 0 0 0 0 0 0 0 0 0 0 0 0 0 0 0 0 0 0 0 0 0 0 0 0 0 0 0 0 0 0 0 0 0 0 0
0 0 0 0 0 0 0 0 0 0 0 0 0 0 0 0 0 0 0 0 0 0 0 0 0 0 0 0 0 0 0 0 0 0 0 0 0 0 0 0 0 0 0 0 0 0 0 0 0
0 0 0 0 0 0 0 0 0 0 0 0 0 0 0 0 0 0 0 0 0 0 0 0 0 0 0 0 0 0 0 0 0 0 0 0 0 0 0 0 0 0 0 0 0 0 0 0 0
0 0 0 0 0 0 0 0 0 0 0 0 0 0 0 0 0 0 0 0 0 0 0 0 0 0 0 0 0 0 0 0 0 0 0 0 0 0 0 0 0 0 0 0 0 0 0 0 0
0 0 0 0 0 0 0 0 0 0 0 0 0 0 0 0 0 0 0 0 0 0 0 0 0 0 0 0 0 0 0 0 0 0 0 0 0 0 0 0 0 0 0 0 0 0 0 0 0
0 0 0 0 0 0 0 0 0 0 0 0 0 0 0 0 0 0 0 0 0 0 0 0 0 0 0 0 0 0 0 0 0 0 0 0 0 0 0 0 0 0 0 0 0 0 0 0 0
0 0 0 0 0 0 0 0 0 0 0 0 0 0 0 0 0 0 0 0 0 0 0 0 0 0 0 0 0 0 0 0 0 0 0 0 0 0 0 0 0 0 0 0 0 0 0 0 0
0 0 0 0 0 0 0 0 0 0 0 0 0 0 0 0 0 0 0 0 0 0 0 0 0 0 0 0 0 0 0 0 0 0 0 0 0 0 0 0 0 0 0 0 0 0 0 0 0
0 0 0 0 0 0 0 0 0 0 0 0 0 0 0 0 0 0 0 0 0 0 0 0 0 0 0 0 0 0 0 0 0 0 0 0 0 0 0 0 0 0 0 0 0 0 0 0 0
0 0 0 0 0 0 0 0 0 0 0 0 0 0 0 0 0 0 0 0 0 0 0 0 0 0 0 0 0 0 0 0 0 0 0 0 0 0 0 0 0 0 0 0 0 0 0 0 0
0 0 0 0 0 0 0 -0 0 0 0 0 0 0 0 0 0 0 0 0 0 0 0 0 0 0 0 0 0 0 0 0 0 0 0 0 0 0 0 0 0 0 0 0 0 0 0 0 0
0 0 0 0 0 0 0 -0 0 0 0 0 0 0 0 0 0 0 0 0 0 0 0 0 0 0 0 0 0 0 0 0 0 0 0 0 0 0 0 0 0 0 0 0 0 0 0 0 0
0 0 0 0 0 0 0 0 0 0 0 -0 -0 0 0 0 0 0 0 0 0 0 0 0 0 0 0 0 0 0 0 0 0 0 0 0 0 0 0 0 0 0 0 0 0 0 0 0 0
0 0 0 0 0 0 0 0 0 0 0 0 0 0 0 0 0 0 0 0 0 0 0 0 0 0 0 0 0 0 0 0 0 0 0 0 0 0 0 0 0 0 0 0 0 0 0 0 0
0 0 0 0 0 0 0 0 0 0 0 0 0 0 0 0 0 0 0 0 0 0 0 0 0 0 0 0 0 0 0 0 0 0 0 0 0 0 0 0 0 0 0 0 0 0 0 0 0
0 0 0 0 0 0 0 0 0 0 0 0 0 0 0 0 0 0 0 0 0 0 0 0 0 0 0 0 0 0 0 0 0 0 0 0 0 0 0 0 0 0 0 0 0 0 0 0 0
0 0 0 0 0 0 0 0 0 0 0 0 -0 -0 0 0 0 0 0 0 0 0 0 0 0 0 0 0 0 0 0 0 0 0 0 0 0 0 0 0 0 0 0 0 0 0 0 0 0
0 0 0 0 0 0 0 0 0 0 0 0 0 0 0 0 0 0 0 0 0 0 0 0 0 0 0 0 0 0 0 0 0 0 0 0 0 0 0 0 0 0 0 0 0 0 0 0 0
0 0 0 0 0 0 0 0 0 0 0 0 0 0 0 0 0 -0 -0 0 0 0 0 0 0 0 0 0 0 0 0 0 0 0 0 0 0 0 0 0 0 0 0 0 0 0 0 0 0
0 0 0 0 0 0 0 0 0 0 0 0 0 0 -0 -0 -0 -0 -0 -0 -0 0 0 0 0 0 0 0 0 0 0 0 0 0 0 0 0 0 0 0 0 0 0 0 0 0 0 0 0
Wind_Speed_500mb
6 4 4 1 8 8 2 5 2 3 1 5 13 10 10 6 7 4 26 37 34 33 32 30 28 25 22 19 17 16 15 17 18 21 24 25 25 25 24 24 24 25 26 24 30 29 28 31 36
7 8 6 7 8 5 6 5 7 7 11 27 19 12 4 3 9 19 35 31 36 35 32 30 28 25 21 19 17 16 11 14 17 20 23 25 26 26 25 24 25 26 28 24 34 30 27 30 32
11 12 5 8 6 6 7 8 8 8 25 5 6 4 6 8 16 36 25 31 36 38 33 31 28 24 21 20 18 16 9 13 15 19 21 24 24 25 25 25 26 27 26 26 31 28 24 26 28
11 8 11 8 5 7 8 5 11 20 11 6 7 6 7 13 26 25 25 30 36 38 34 30 27 24 21 20 18 16 13 11 10 14 18 20 22 24 24 25 26 25 26 25 26 24 22 23 25
11 7 8 6 4 6 7 6 23 11 4 8 11 7 7 17 19 21 25 33 37 39 34 31 27 23 20 17 16 15 14 11 10 10 13 16 18 20 21 22 22 23 23 23 22 21 20 21 23
6 6 8 3 6 6 6 15 17 12 6 10 7 12 9 18 21 24 27 32 35 37 32 30 28 25 21 19 17 16 15 11 10 9 10 12 15 19 21 22 23 24 23 22 23 21 20 19 20
10 8 9 9 5 5 9 20 14 18 12 11 7 12 6 23 27 29 31 36 37 29 26 25 27 25 19 19 19 18 17 12 10 8 10 11 14 18 20 21 22 23 24 25 24 24 22 20 19
9 12 8 5 7 10 10 23 10 21 13 10 17 8 7 29 31 36 35 41 42 38 33 31 27 25 21 15 16 19 18 16 14 13 12 10 11 15 18 24 30 31 27 25 25 24 25 24 20
9 9 5 9 13 8 12 11 10 12 11 21 23 14 10 30 37 41 42 43 43 44 42 37 32 24 24 23 22 16 16 15 19 20 14 6 7 12 15 16 20 20 25 25 22 24 25 21 20
8 8 16 9 9 7 9 12 19 12 15 18 25 30 21 28 43 45 48 49 50 49 48 44 34 32 27 26 24 20 21 23 21 22 18 11 6 4 3 5 5 12 17 20 18 17 21 16 15
6 9 9 7 10 8 8 10 14 16 10 27 33 38 34 34 47 49 48 49 47 48 49 48 39 39 35 30 29 28 31 30 25 23 23 19 16 11 9 3 5 2 7 9 11 13 15 14 12
5 3 9 4 8 4 6 7 11 30 30 16 20 28 35 42 50 54 53 53 53 53 51 52 45 45 45 39 35 37 37 39 32 28 26 25 22 20 16 12 11 11 7 3 6 8 12 12 10
5 2 6 7 9 11 10 19 14 31 35 36 33 28 34 43 51 54 53 50 52 57 56 52 52 45 49 49 44 42 39 43 38 32 32 31 26 25 24 20 19 16 12 5 3 4 8 9 11
2 0 7 8 11 11 8 8 6 15 31 42 38 38 37 43 50 56 57 58 58 57 59 57 56 53 52 49 47 46 44 46 45 39 33 32 27 30 31 26 23 25 21 12 3 6 9 12 17
4 5 10 11 4 8 6 13 19 46 41 34 38 44 42 48 55 60 58 60 59 60 59 58 56 55 54 53 47 43 44 40 42 43 40 37 34 33 29 32 26 33 23 15 8 14 14 18 25
7 9 4 4 8 5 11 19 12 10 23 42 45 44 47 52 59 60 62 62 61 61 61 58 56 54 55 54 49 52 45 46 49 48 46 43 36 48 37 38 33 39 24 19 15 20 14 24 30
11 6 9 16 17 5 8 15 10 7 13 29 32 39 46 52 60 64 66 65 66 65 63 62 60 58 59 58 53 54 55 56 62 54 52 45 44 48 57 40 36 37 34 24 18 18 17 29 38
12 8 8 10 4 4 7 25 24 31 23 37 42 42 50 58 63 60 64 67 69 70 68 66 63 61 61 61 60 56 58 58 56 55 58 51 50 54 59 41 44 30 22 31 29 22 30 32 40
11 9 10 9 9 8 17 20 32 32 34 55 70 71 80 86 74 63 64 68 71 72 72 70 66 65 62 66 68 69 62 64 61 59 64 50 55 55 52 34 45 40 37 33 38 34 34 43 43
7 7 10 12 7 12 16 22 27 40 35 64 75 80 91 77 76 68 64 73 77 76 73 70 66 63 59 60 61 66 63 65 62 58 61 59 56 54 57 59 55 40 42 42 51 35 38 48 48
9 12 10 15 9 6 11 14 13 18 42 61 79 88 73 59 63 59 60 70 79 81 78 72 65 59 56 55 57 63 66 66 65 68 55 48 47 46 47 52 38 38 42 45 48 37 39 49 50
11 15 11 6 4 9 5 13 9 14 17 11 64 47 49 46 46 46 46 58 73 80 77 71 63 59 59 57 58 61 64 66 63 62 64 51 42 54 59 46 38 42 45 47 45 43 40 40 41
12 10 12 6 7 7 6 9 6 4 10 26 25 29 21 19 23 27 28 37 54 67 73 71 66 63 60 59 58 57 56 59 55 57 56 57 58 59 54 47 49 44 45 46 48 47 44 39 38
18 12 10 7 5 8 17 14 10 11 12 12 5 5 4 21 22 18 20 29 40 56 67 70 68 64 58 54 54 59 61 60 60 62 62 54 65 55 53 52 51 54 52 54 51 46 43 40 35
3 12 2 5 1 15 2 7 19 17 14 11 5 21 21 13 14 17 22 27 35 46 61 68 69 65 59 57 57 62 57 57 57 60 65 71 64 64 65 58 57 54 52 53 52 49 46 41 36
17 14 12 14 9 9 3 16 12 16 26 23 24 22 29 34 31 23 20 20 27 36 51 63 65 60 56 55 56 58 54 57 62 66 72 76 70 74 67 65 61 58 57 55 52 48 44 37 31
14 15 9 11 4 3 10 14 16 22 22 20 19 18 15 10 7 9 11 14 21 28 41 54 59 57 54 53 51 56 58 60 62 70 76 79 78 72 68 65 65 63 59 54 50 44 40 34 28
10 15 6 3 8 12 9 11 13 12 12 9 6 5 1 2 2 3 5 9 16 24 31 43 50 52 51 50 49 52 56 59 64 63 74 80 74 74 70 71 69 64 61 55 48 42 37 30 27
7 8 3 9 9 10 4 13 15 20 14 15 5 3 1 5 6 4 2 3 11 19 27 36 48 52 52 50 50 52 56 59 64 65 72 76 77 78 73 68 68 65 61 55 47 40 35 30 26
2 13 13 10 10 7 4 20 4 11 14 14 11 12 16 16 14 10 6 5 14 22 29 36 45 50 50 49 47 52 57 59 61 62 67 73 80 76 69 72 68 63 57 52 44 39 35 29 23
Wind_Direction_500mb
228 200 149 142 56 62 317 263 329 176 247 179 138 164 183 119 163 187 152 157 166 171 165 160 160 161 155 144 137 127 122 111 92 72 65 67 67 68 66 68 70 72 75 78 72 87 76 70 68
181 162 131 87 84 58 275 254 218 196 138 120 117 120 126 144 135 146 150 164 170 175 171 163 163 164 161 153 145 136 131 109 94 84 77 75 73 73 73 72 71 71 78 83 84 82 77 74 70
158 156 108 88 102 173 214 220 199 153 152 148 128 116 141 149 147 150 160 165 171 174 174 170 168 169 168 161 155 151 136 103 95 83 77 74 74 75 77 76 74 73 78 75 87 90 86 77 73
156 123 65 84 195 231 199 205 178 142 206 191 164 108 148 145 148 167 173 172 174 173 176 174 175 176 175 170 164 162 156 120 109 86 78 74 74 75 73 71 73 78 79 81 82 85 79 72 69
152 103 67 82 252 264 242 213 167 161 197 177 168 190 179 172 171 171 172 175 176 172 176 178 181 182 182 180 172 171 171 153 143 107 89 83 79 73 73 78 80 77 75 77 84 82 79 75 73
108 92 73 205 244 250 242 180 164 183 194 178 188 161 181 184 178 171 164 169 171 173 175 181 185 187 189 190 189 185 189 180 157 133 111 91 74 66 65 68 74 78 78 76 75 72 71 72 71
126 87 180 172 234 293 207 169 180 185 195 219 194 151 212 185 173 171 166 167 162 172 187 188 187 185 184 197 195 191 197 194 181 160 130 109 89 74 64 61 62 66 68 66 65 63 60 60 60
127 92 120 218 198 247 192 170 196 181 205 202 187 205 218 189 177 174 173 170 172 175 189 194 207 202 195 207 215 204 202 199 192 174 159 134 94 70 71 78 78 76 68 59 51 53 53 52 53
122 69 178 219 159 234 172 178 172 187 182 191 200 210 203 187 187 183 181 178 180 182 188 195 206 201 202 215 223 232 218 208 205 200 204 178 91 75 72 75 59 69 71 67 55 43 35 40 43
98 116 213 203 197 209 196 191 177 168 200 215 222 224 217 199 197 197 195 190 187 187 188 195 200 202 205 219 229 232 226 227 222 217 208 231 190 159 82 42 60 84 79 66 61 39 28 37 36
140 176 190 214 227 215 188 204 189 174 229 220 226 234 223 212 205 206 207 206 201 192 193 193 197 202 208 221 224 231 228 225 225 227 221 215 214 210 208 244 266 145 98 89 66 45 25 21 21
132 192 171 208 213 197 196 184 201 208 232 238 244 244 234 222 213 212 211 209 206 203 204 202 201 205 206 217 225 232 227 224 221 223 224 227 224 223 226 234 250 218 196 137 75 50 27 20 38
142 197 215 250 245 245 249 247 235 246 246 250 250 243 235 230 221 218 216 214 212 211 211 214 216 215 212 213 224 233 231 227 225 230 226 223 226 229 229 228 246 224 215 184 145 65 45 50 88
116 267 289 276 250 244 220 254 219 258 248 246 247 249 240 233 228 221 216 215 216 215 216 218 221 224 221 220 226 227 233 230 224 230 233 238 231 239 232 237 238 227 216 207 199 114 94 108 113
90 348 330 247 286 239 217 285 234 255 254 253 249 247 242 236 227 228 229 225 222 220 221 223 226 228 228 224 220 225 228 233 233 229 230 246 232 241 241 251 238 234 220 200 178 140 125 131 127
56 43 12 271 170 246 160 271 266 289 251 252 250 249 246 239 236 234 230 228 228 226 228 229 231 230 229 221 222 225 229 234 232 232 239 241 241 245 242 245 246 233 195 193 183 151 149 143 137
7 223 211 313 206 127 170 265 251 279 250 260 257 253 250 248 241 235 232 230 229 230 231 232 233 234 233 234 221 225 228 227 237 233 233 236 250 242 256 266 242 221 193 187 179 160 181 159 148
197 210 235 237 215 168 206 262 274 259 267 269 273 266 261 254 248 244 236 232 230 231 232 234 235 235 234 231 225 226 226 229 227 225 243 238 241 240 231 246 252 204 207 191 180 195 176 168 160
138 179 210 239 238 186 229 240 260 263 254 262 263 262 262 260 259 246 238 235 232 231 231 233 236 239 237 235 229 223 224 225 225 239 221 234 231 249 256 242 245 204 205 196 185 182 185 168 168
159 193 246 282 247 191 271 250 250 258 244 246 254 260 262 261 262 255 243 236 235 235 235 235 237 238 237 231 227 221 219 222 221 227 241 232 246 238 234 252 209 208 196 190 189 199 197 181 175
202 196 202 230 322 238 313 271 235 268 246 251 255 258 263 267 273 267 251 240 236 234 234 234 236 235 231 226 221 220 218 222 226 226 233 233 225 235 228 206 198 200 192 189 190 200 206 190 183
231 202 177 195 61 256 10 289 256 240 250 254 256 262 274 282 281 275 260 243 238 235 231 232 234 232 228 224 222 223 226 223 222 231 230 226 232 210 206 199 204 195 192 189 190 196 198 199 200
222 130 163 132 180 354 316 274 237 145 266 255 273 283 295 300 288 277 267 253 244 238 231 230 230 228 225 223 220 224 222 222 221 221 235 231 214 216 211 208 198 194 193 185 194 193 193 198 203
150 85 63 63 97 268 197 196 154 188 211 253 215 175 205 316 301 275 248 236 235 233 228 227 227 228 224 219 214 219 222 226 229 229 218 230 208 206 205 198 194 192 193 192 191 188 184 184 187
157 116 286 322 1 241 20 250 254 280 229 234 256 279 292 320 306 286 264 250 238 229 226 223 225 225 220 219 216 216 222 229 231 232 234 226 208 198 196 191 194 191 194 192 192 189 185 181 179
199 173 168 211 205 267 147 238 249 235 269 274 282 291 294 291 285 276 257 242 236 227 225 222 223 222 221 221 219 218 221 224 230 231 231 213 208 204 191 191 195 195 191 190 186 183 180 176 172
195 208 165 104 48 20 224 283 278 258 276 276 270 276 278 275 252 241 243 236 235 230 227 223 222 223 224 226 222 221 225 227 228 228 222 216 204 204 189 196 191 191 192 191 188 185 180 170 161
170 163 100 319 171 239 262 272 227 252 193 220 132 346 8 199 148 166 203 224 229 228 226 222 222 228 227 225 226 230 229 229 230 230 220 212 207 196 197 192 194 191 190 189 185 180 172 164 154
148 206 131 128 159 183 285 261 219 222 177 170 175 18 169 154 96 76 142 233 235 229 225 221 220 224 224 222 223 230 233 237 234 227 220 218 202 199 194 199 195 193 190 186 183 179 173 162 155
67 197 155 185 210 234 155 259 194 203 160 168 202 199 129 127 117 112 109 234 245 237 226 224 224 228 231 230 229 226 227 232 233 230 225 213 207 203 199 199 197 195 191 185 183 179 169 158 150
Wind_Speed_850mb
6 4 4 1 8 8 2 5 2 3 1 5 13 10 10 6 7 4 26 37 34 33 32 30 28 25 22 19 17 16 15 17 18 21 24 25 25 25 24 24 24 25 26 24 30 29 28 31 36
7 8 6 7 8 5 6 5 7 7 11 27 19 12 4 3 9 19 35 31 36 35 32 30 28 25 21 19 17 16 11 14 17 20 23 25 26 26 25 24 25 26 28 24 34 30 27 30 32
11 12 5 8 6 6 7 8 8 8 25 5 6 4 6 8 16 36 25 31 36 38 33 31 28 24 21 20 18 16 9 13 15 19 21 24 24 25 25 25 26 27 26 26 31 28 24 26 28
11 8 11 8 5 7 8 5 11 20 11 6 7 6 7 13 26 25 25 30 36 38 34 30 27 24 21 20 18 16 13 11 10 14 18 20 22 24 24 25 26 25 26 25 26 24 22 23 25
11 7 8 6 4 6 7 6 23 11 4 8 11 7 7 17 19 21 25 33 37 39 34 31 27 23 20 17 16 15 14 11 10 10 13 16 18 20 21 22 22 23 23 23 22 21 20 21 23
6 6 8 3 6 6 6 15 17 12 6 10 7 12 9 18 21 24 27 32 35 37 32 30 28 25 21 19 17 16 15 11 10 9 10 12 15 19 21 22 23 24 23 22 23 21 20 19 20
10 8 9 9 5 5 9 20 14 18 12 11 7 12 6 23 27 29 31 36 37 29 26 25 27 25 19 19 19 18 17 12 10 8 10 11 14 18 20 21 22 23 24 25 24 24 22 20 19
9 12 8 5 7 10 10 23 10 21 13 10 17 8 7 29 31 36 35 41 42 38 33 31 27 25 21 15 16 19 18 16 14 13 12 10 11 15 18 24 30 31 27 25 25 24 25 24 20
9 9 5 9 13 8 12 11 10 12 11 21 23 14 10 30 37 41 42 43 43 44 42 37 32 24 24 23 22 16 16 15 19 20 14 6 7 12 15 16 20 20 25 25 22 24 25 21 20
8 8 16 9 9 7 9 12 19 12 15 18 25 30 21 28 43 45 48 49 50 49 48 44 34 32 27 26 24 20 21 23 21 22 18 11 6 4 3 5 5 12 17 20 18 17 21 16 15
6 9 9 7 10 8 8 10 14 16 10 27 33 38 34 34 47 49 48 49 47 48 49 48 39 39 35 30 29 28 31 30 25 23 23 19 16 11 9 3 5 2 7 9 11 13 15 14 12
5 3 9 4 8 4 6 7 11 30 30 16 20 28 35 42 50 54 53 53 53 53 51 52 45 45 45 39 35 37 37 39 32 28 26 25 22 20 16 12 11 11 7 3 6 8 12 12 10
5 2 6 7 9 11 10 19 14 31 35 36 33 28 34 43 51 54 53 50 52 57 56 52 52 45 49 49 44 42 39 43 38 32 32 31 26 25 24 20 19 16 12 5 3 4 8 9 11
2 0 7 8 11 11 8 8 6 15 31 42 38 38 37 43 50 56 57 58 58 57 59 57 56 53 52 49 47 46 44 46 45 39 33 32 27 30 31 26 23 25 21 12 3 6 9 12 17
4 5 10 11 4 8 6 13 19 46 41 34 38 44 42 48 55 60 58 60 59 60 59 58 56 55 54 53 47 43 44 40 42 43 40 37 34 33 29 32 26 33 23 15 8 14 14 18 25
7 9 4 4 8 5 11 19 12 10 23 42 45 44 47 52 59 60 62 62 61 61 61 58 56 54 55 54 49 52 45 46 49 48 46 43 36 48 37 38 33 39 24 19 15 20 14 24 30
11 6 9 16 17 5 8 15 10 7 13 29 32 39 46 52 60 64 66 65 66 65 63 62 60 58 59 58 53 54 55 56 62 54 52 45 44 48 57 40 36 37 34 24 18 18 17 29 38
12 8 8 10 4 4 7 25 24 31 23 37 42 42 50 58 63 60 64 67 69 70 68 66 63 61 61 61 60 56 58 58 56 55 58 51 50 54 59 41 44 30 22 31 29 22 30 32 40
11 9 10 9 9 8 17 20 32 32 34 55 70 71 80 86 74 63 64 68 71 72 72 70 66 65 62 66 68 69 62 64 61 59 64 50 55 55 52 34 45 40 37 33 38 34 34 43 43
7 7 10 12 7 12 16 22 27 40 35 64 75 80 91 77 76 68 64 73 77 76 73 70 66 63 59 60 61 66 63 65 62 58 61 59 56 54 57 59 55 40 42 42 51 35 38 48 48
9 12 10 15 9 6 11 14 13 18 42 61 79 88 73 59 63 59 60 70 79 81 78 72 65 59 56 55 57 63 66 66 65 68 55 48 47 46 47 52 38 38 42 45 48 37 39 49 50
11 15 11 6 4 9 5 13 9 14 17 11 64 47 49 46 46 46 46 58 73 80 77 71 63 59 59 57 58 61 64 66 63 62 64 51 42 54 59 46 38 42 45 47 45 43 40 40 41
12 10 12 6 7 7 6 9 6 4 10 26 25 29 21 19 23 27 28 37 54 67 73 71 66 63 60 59 58 57 56 59 55 57 56 57 58 59 54 47 49 44 45 46 48 47 44 39 38
18 12 10 7 5 8 17 14 10 11 12 12 5 5 4 21 22 18 20 29 40 56 67 70 68 64 58 54 54 59 61 60 60 62 62 54 65 55 53 52 51 54 52 54 51 46 43 40 35
3 12 2 5 1 15 2 7 19 17 14 11 5 21 21 13 14 17 22 27 35 46 61 68 69 65 59 57 57 62 57 57 57 60 65 71 64 64 65 58 57 54 52 53 52 49 46 41 36
17 14 12 14 9 9 3 16 12 16 26 23 24 22 29 34 31 23 20 20 27 36 51 63 65 60 56 55 56 58 54 57 62 66 72 76 70 74 67 65 61 58 57 55 52 48 44 37 31
14 15 9 11 4 3 10 14 16 22 22 20 19 18 15 10 7 9 11 14 21 28 41 54 59 57 54 53 51 56 58 60 62 70 76 79 78 72 68 65 65 63 59 54 50 44 40 34 28
10 15 6 3 8 12 9 11 13 12 12 9 6 5 1 2 2 3 5 9 16 24 31 43 50 52 51 50 49 52 56 59 64 63 74 80 74 74 70 71 69 64 61 55 48 42 37 30 27
7 8 3 9 9 10 4 13 15 20 14 15 5 3 1 5 6 4 2 3 11 19 27 36 48 52 52 50 50 52 56 59 64 65 72 76 77 78 73 68 68 65 61 55 47 40 35 30 26
2 13 13 10 10 7 4 20 4 11 14 14 11 12 16 16 14 10 6 5 14 22 29 36 45 50 50 49 47 52 57 59 61 62 67 73 80 76 69 72 68 63 57 52 44 39 35 29 23
Wind_Direction_850mb
228 200 149 142 56 62 317 263 329 176 247 179 138 164 183 119 163 187 152 157 166 171 165 160 160 161 155 144 137 127 122 111 92 72 65 67 67 68 66 68 70 72 75 78 72 87 76 70 68
181 162 131 87 84 58 275 254 218 196 138 120 117 120 126 144 135 146 150 164 170 175 171 163 163 164 161 153 145 136 131 109 94 84 77 75 73 73 73 72 71 71 78 83 84 82 77 74 70
158 156 108 88 102 173 214 220 199 153 152 148 128 116 141 149 147 150 160 165 171 174 174 170 168 169 168 161 155 151 136 103 95 83 77 74 74 75 77 76 74 73 78 75 87 90 86 77 73
156 123 65 84 195 231 199 205 178 142 206 191 164 108 148 145 148 167 173 172 174 173 176 174 175 176 175 170 164 162 156 120 109 86 78 74 74 75 73 71 73 78 79 81 82 85 79 72 69
152 103 67 82 252 264 242 213 167 161 197 177 168 190 179 172 171 171 172 175 176 172 176 178 181 182 182 180 172 171 171 153 143 107 89 83 79 73 73 78 80 77 75 77 84 82 79 75 73
108 92 73 205 244 250 242 180 164 183 194 178 188 161 181 184 178 171 164 169 171 173 175 181 185 187 189 190 189 185 189 180 157 133 111 91 74 66 65 68 74 78 78 76 75 72 71 72 71
126 87 180 172 234 293 207 169 180 185 195 219 194 151 212 185 173 171 166 167 162 172 187 188 187 185 184 197 195 191 197 194 181 160 130 109 89 74 64 61 62 66 68 66 65 63 60 60 60
127 92 120 218 198 247 192 170 196 181 205 202 187 205 218 189 177 174 173 170 172 175 189 194 207 202 195 207 215 204 202 199 192 174 159 134 94 70 71 78 78 76 68 59 51 53 53 52 53
122 69 178 219 159 234 172 178 172 187 182 191 200 210 203 187 187 183 181 178 180 182 188 195 206 201 202 215 223 232 218 208 205 200 204 178 91 75 72 75 59 69 71 67 55 43 35 40 43
98 116 213 203 197 209 196 191 177 168 200 215 222 224 217 199 197 197 195 190 187 187 188 195 200 202 205 219 229 232 226 227 222 217 208 231 190 159 82 42 60 84 79 66 61 39 28 37 36
140 176 190 214 227 215 188 204 189 174 229 220 226 234 223 212 205 206 207 206 201 192 193 193 197 202 208 221 224 231 228 225 225 227 221 215 214 210 208 244 266 145 98 89 66 45 25 21 21
132 192 171 208 213 197 196 184 201 208 232 238 244 244 234 222 213 212 211 209 206 203 204 202 201 205 206 217 225 232 227 224 221 223 224 227 224 223 226 234 250 218 196 137 75 50 27 20 38
142 197 215 250 245 245 249 247 235 246 246 250 250 243 235 230 221 218 216 214 212 211 211 214 216 215 212 213 224 233 231 227 225 230 226 223 226 229 229 228 246 224 215 184 145 65 45 50 88
116 267 289 276 250 244 220 254 219 258 248 246 247 249 240 233 228 221 216 215 216 215 216 218 221 224 221 220 226 227 233 230 224 230 233 238 231 239 232 237 238 227 216 207 199 114 94 108 113
90 348 330 247 286 239 217 285 234 255 254 253 249 247 242 236 227 228 229 225 222 220 221 223 226 228 228 224 220 225 228 233 233 229 230 246 232 241 241 251 238 234 220 200 178 140 125 131 127
56 43 12 271 170 246 160 271 266 289 251 252 250 249 246 239 236 234 230 228 228 226 228 229 231 230 229 221 222 225 229 234 232 232 239 241 241 245 242 245 246 233 195 193 183 151 149 143 137
7 223 211 313 206 127 170 265 251 279 250 260 257 253 250 248 241 235 232 230 229 230 231 232 233 234 233 234 221 225 228 227 237 233 233 236 250 242 256 266 242 221 193 187 179 160 181 159 148
197 210 235 237 215 168 206 262 274 259 267 269 273 266 261 254 248 244 236 232 230 231 232 234 235 235 234 231 225 226 226 229 227 225 243 238 241 240 231 246 252 204 207 191 180 195 176 168 160
138 179 210 239 238 186 229 240 260 263 254 262 263 262 262 260 259 246 238 235 232 231 231 233 236 239 237 235 229 223 224 225 225 239 221 234 231 249 256 242 245 204 205 196 185 182 185 168 168
159 193 246 282 247 191 271 250 250 258 244 246 254 260 262 261 262 255 243 236 235 235 235 235 237 238 237 231 227 221 219 222 221 227 241 232 246 238 234 252 209 208 196 190 189 199 197 181 175
202 196 202 230 322 238 313 271 235 268 246 251 255 258 263 267 273 267 251 240 236 234 234 234 236 235 231 226 221 220 218 222 226 226 233 233 225 235 228 206 198 200 192 189 190 200 206 190 183
231 202 177 195 61 256 10 289 256 240 250 254 256 262 274 282 281 275 260 243 238 235 231 232 234 232 228 224 222 223 226 223 222 231 230 226 232 210 206 199 204 195 192 189 190 196 198 199 200
222 130 163 132 180 354 316 274 237 145 266 255 273 283 295 300 288 277 267 253 244 238 231 230 230 228 225 223 220 224 222 222 221 221 235 231 214 216 211 208 198 194 193 185 194 193 193 198 203
150 85 63 63 97 268 197 196 154 188 211 253 215 175 205 316 301 275 248 236 235 233 228 227 227 228 224 219 214 219 222 226 229 229 218 230 208 206 205 198 194 192 193 192 191 188 184 184 187
157 116 286 322 1 241 20 250 254 280 229 234 256 279 292 320 306 286 264 250 238 229 226 223 225 225 220 219 216 216 222 229 231 232 234 226 208 198 196 191 194 191 194 192 192 189 185 181 179
199 173 168 211 205 267 147 238 249 235 269 274 282 291 294 291 285 276 257 242 236 227 225 222 223 222 221 221 219 218 221 224 230 231 231 213 208 204 191 191 195 195 191 190 186 183 180 176 172
195 208 165 104 48 20 224 283 278 258 276 276 270 276 278 275 252 241 243 236 235 230 227 223 222 223 224 226 222 221 225 227 228 228 222 216 204 204 189 196 191 191 192 191 188 185 180 170 161
170 163 100 319 171 239 262 272 227 252 193 220 132 346 8 199 148 166 203 224 229 228 226 222 222 228 227 225 226 230 229 229 230 230 220 212 207 196 197 192 194 191 190 189 185 180 172 164 154
148 206 131 128 159 183 285 261 219 222 177 170 175 18 169 154 96 76 142 233 235 229 225 221 220 224 224 222 223 230 233 237 234 227 220 218 202 199 194 199 195 193 190 186 183 179 173 162 155
67 197 155 185 210 234 155 259 194 203 160 168 202 199 129 127 117 112 109 234 245 237 226 224 224 228 231 230 229 226 227 232 233 230 225 213 207 203 199 199 197 195 191 185 183 179 169 158 150